This is the latest recevied weather packets stored in our database for station/object KB3FCJ-2. If no packets are shown the sender has not sent any weather packets the latest 10 day(s).
| Time | Temp. | Humidity | Pressure | Rain* | Wind** | Luminosity | Snow |
|---|---|---|---|---|---|---|---|
| 1777910512 | 18.89° C | 45% | 944.6 hPa | 0 mm | - | - | - |
| 1777909912 | 18.89° C | 42% | 944.6 hPa | 0 mm | - | - | - |
| 1777909311 | 19.44° C | 45% | 944.6 hPa | 0 mm | - | - | - |
| 1777908712 | 18.33° C | 45% | 944.6 hPa | 0 mm | - | - | - |
| 1777907879 | 17.78° C | 45% | 944.6 hPa | 0 mm | - | - | - |
| 1777907279 | 17.78° C | 50% | 944.6 hPa | 0 mm | - | - | - |
| 1777906679 | 18.33° C | 51% | 944.6 hPa | 0 mm | - | - | - |
| 1777906078 | 17.78° C | 55% | 944.6 hPa | 0 mm | - | - | - |
| 1777905242 | 16.67° C | 54% | 944.6 hPa | 0 mm | - | - | - |
| 1777904642 | 16.67° C | 57% | 944.6 hPa | 0 mm | - | - | - |
| 1777904042 | 16.67° C | 57% | 944.6 hPa | 0 mm | - | - | - |
| 1777903442 | 16.67° C | 60% | 944.6 hPa | 0 mm | - | - | - |
| 1777902609 | 15.56° C | 64% | 944.6 hPa | 0 mm | - | - | - |
| 1777902009 | 15.56° C | 66% | 944.6 hPa | 0 mm | - | - | - |
| 1777901408 | 14.44° C | 67% | 944.6 hPa | 0 mm | - | - | - |
| 1777900809 | 13.89° C | 68% | 944.6 hPa | 0 mm | - | - | - |
| 1777899976 | 13.33° C | 71% | 944.6 hPa | 0 mm | - | - | - |
| 1777899376 | 13.33° C | 72% | 944.6 hPa | 0 mm | - | - | - |
| 1777898776 | 12.78° C | 73% | 944.6 hPa | 0 mm | - | - | - |
| 1777898176 | 12.22° C | 74% | 944.6 hPa | 0 mm | - | - | - |
| 1777897339 | 11.67° C | 77% | 944.6 hPa | 0 mm | - | - | - |
| 1777896739 | 11.11° C | 78% | 944.6 hPa | 0 mm | - | - | - |
| 1777896139 | 10.56° C | 81% | 944.6 hPa | 0 mm | - | - | - |
| 1777895539 | 10° C | 81% | 944.6 hPa | 0 mm | - | - | - |
| 1777894724 | 8.89° C | 80% | 944.6 hPa | 0 mm | - | - | - |
* Rain latest hour (hover to see other rain measurements)
** Current wind speed in m/s (hover to see current wind gust speed)